GREYPAWS Weather Reports


time (UTC)temp
C
wind
direction
speed
KPH
gust
KPH
rain 1hr
cm
rain 24hr
cm
rain mn
cm
humidity
%
barometer
mb
20260503060120 15 266 0.0 3.2 0.00 0.00 0.00 53 1012.1
20260503054600 15 263 0.0 3.2 0.00 0.00 0.00 53 1012.0
20260503053100 15 315 0.0 0.0 0.00 0.00 0.00 52 1011.9
20260503053010 15 315 0.0 0.0 0.00 0.00 0.00 52 1012.0
20260503051536 15 315 0.0 0.0 0.00 0.00 0.00 51 1011.9
20260503050035 16 315 0.0 0.0 0.00 0.00 0.00 49 1011.7
20260503044530 16 315 0.0 0.0 0.00 0.00 0.00 45 1011.7
20260503043018 17 315 0.0 0.0 0.00 0.00 0.00 44 1011.6
20260503041558 18 315 0.0 3.2 0.00 0.00 0.00 42 1011.4
20260503040043 19 319 0.0 3.2 0.00 0.00 0.00 39 1011.2
20260503034556 20 347 0.0 3.2 0.00 0.00 0.00 38 1011.1
20260503033056 20 333 0.0 3.2 0.00 0.00 0.00 38 1011.0
20260503031546 20 336 0.0 3.2 0.00 0.00 0.00 37 1010.8
20260503030051 21 321 0.0 3.2 0.00 0.00 0.00 37 1010.6
20260503024528 21 315 0.0 3.2 0.00 0.00 0.00 36 1010.6
20260503023022 22 333 0.0 6.4 0.00 0.00 0.00 33 1010.6
20260503021552 22 338 0.0 4.8 0.00 0.00 0.00 32 1010.5
20260503020053 22 351 0.0 4.8 0.00 0.00 0.00 31 1010.4
20260503014603 23 350 0.0 6.4 0.00 0.00 0.00 31 1010.5
20260503014502 23 355 0.0 6.4 0.00 0.00 0.00 31 1010.5
20260503013054 23 360 0.0 4.8 0.00 0.00 0.00 31 1010.6
20260503011603 24 335 0.0 4.8 0.00 0.00 0.00 30 1010.8
20260503010026 24 327 1.6 8.0 0.00 0.00 0.00 28 1010.9
20260503004525 25 5 1.6 8.0 0.00 0.00 0.00 27 1010.9
20260503003016 25 5 1.6 11.3 0.00 0.00 0.00 27 1010.9
20260503001558 25 340 3.2 9.7 0.00 0.00 0.00 27 1010.9
20260503000057 26 327 1.6 9.7 0.00 0.00 0.00 24 1010.9
20260502234533 26 13 0.0 4.8 0.00 0.00 0.00 23 1011.1
20260502233032 26 64 3.2 8.0 0.00 0.00 0.00 21 1011.2
20260502231536 27 76 1.6 9.7 0.00 0.00 0.00 23 1011.3
20260502230026 27 360 0.0 6.4 0.00 0.00 0.00 24 1011.4
20260502224521 27 5 0.0 8.0 0.00 0.00 0.00 24 1011.6
20260502223006 26 105 1.6 8.0 0.00 0.00 0.00 24 1011.8
20260502221528 26 72 0.0 8.0 0.00 0.00 0.00 25 1012.1
20260502220025 26 88 3.2 11.3 0.00 0.00 0.00 25 1012.3
20260502214519 26 340 3.2 9.7 0.00 0.00 0.00 26 1012.5
20260502213019 26 69 1.6 8.0 0.00 0.00 0.00 27 1012.8
20260502211601 26 345 3.2 9.7 0.00 0.00 0.00 26 1013.0
20260502210052 26 329 3.2 8.0 0.00 0.00 0.00 28 1013.2
20260502204546 26 41 0.0 8.0 0.00 0.00 0.00 29 1013.4
20260502203055 25 55 1.6 8.0 0.00 0.00 0.00 28 1013.5
20260502201547 25 88 3.2 11.3 0.00 0.00 0.00 28 1013.7
20260502200046 25 55 0.0 8.0 0.00 0.00 0.00 29 1014.0
20260502194542 24 67 8.0 14.5 0.00 0.00 0.00 30 1014.2
20260502193037 23 94 8.0 17.7 0.00 0.00 0.00 31 1014.4
20260502191532 23 105 1.6 12.9 0.00 0.00 0.00 31 1014.6
20260502190031 22 111 4.8 9.7 0.00 0.00 0.00 31 1014.9
20260502184557 22 80 3.2 12.9 0.00 0.00 0.00 33 1015.0
20260502183100 21 108 1.6 16.1 0.00 0.00 0.00 34 1015.4
20260502181551 20 46 1.6 9.7 0.00 0.00 0.00 34 1015.6
20260502163114 18 93 1.6 8.0 0.00 0.00 0.00 37 1016.6
20260502161534 17 125 0.0 6.4 0.00 0.00 0.00 39 1016.7
20260502151506 13 72 0.0 3.2 0.00 0.00 0.00 53 1016.6
20260502123046 6 302 0.0 3.2 0.00 0.00 0.00 76 1016.1
20260502121533 6 294 0.0 3.2 0.00 0.00 0.00 75 1016.0
20260502114536 6 284 0.0 3.2 0.00 0.00 0.00 74 1016.0
20260502113037 6 284 0.0 3.2 0.00 0.00 0.00 74 1015.9
20260502111532 6 284 0.0 3.2 0.00 0.00 0.00 73 1015.8
20260502110051 6 283 0.0 3.2 0.00 0.00 0.00 73 1015.9
20260502104528 6 265 0.0 3.2 0.00 0.00 0.00 71 1015.8
20260502103015 7 265 0.0 3.2 0.00 0.00 0.00 70 1015.7
20260502101602 7 49 0.0 0.0 0.00 0.00 0.00 68 1015.8
20260502091522 8 74 0.0 3.2 0.00 0.00 0.00 63 1015.7
20260502071516 11 86 0.0 3.2 0.00 0.00 0.00 54 1016.0